Location: Unnamed
(51.5169°N, 0.1311°W)
Time: 07:37:05
(UTC+01:00)

Vanguard 1 - Pass Details

Date: 18 August 2024
Orbit: 649 x 3825 km, 34.2° (Epoch: 16 September)

Event Time Altitude Azimuth Distance (km) Brightness Sun altitude
Exits shadow 04:14:26 16° 232° (SW) 5,060 13.0 -13.5°
Maximum altitude 04:19:27 18° 212° (SSW) 5,283 13.2 -13.0°
Drops below altitude 10° 04:30:55 10° 179° (S) 6,642 13.9 -11.6°
Sets 04:39:21 0° 164° (SSE) 7,918 14.5 -10.6°
